This is the latest recevied weather packets stored in our database for station/object KN6CW-3. If no packets are shown the sender has not sent any weather packets the latest 10 day(s).
| Time | Temp. | Humidity | Pressure | Rain* | Wind** | Luminosity | Snow |
|---|---|---|---|---|---|---|---|
| 1777397377 | 12.22° C | 60% | 1019.6 hPa | 0 mm | - | 287 W/m² | - |
| 1777397076 | 12.22° C | 61% | 1019.9 hPa | 0 mm | - | 278 W/m² | - |
| 1777396776 | 12.22° C | 62% | 1019.8 hPa | 0 mm | - | 278 W/m² | - |
| 1777396476 | 12.22° C | 61% | 1019.7 hPa | 0 mm | - | 330 W/m² | - |
| 1777396176 | 12.22° C | 61% | 1019.8 hPa | 0 mm | - | 338 W/m² | - |
| 1777395876 | 11.67° C | 63% | 1020 hPa | 0 mm | - | 316 W/m² | - |
| 1777395575 | 11.67° C | 63% | 1020 hPa | 0 mm | - | 287 W/m² | - |
| 1777395275 | 11.67° C | 62% | 1019.9 hPa | 0 mm | - | 294 W/m² | - |
| 1777394974 | 11.67° C | 64% | 1020 hPa | 0 mm | - | 290 W/m² | - |
| 1777394674 | 11.67° C | 66% | 1020 hPa | 0 mm | - | 295 W/m² | - |
| 1777394374 | 11.11° C | 67% | 1020.1 hPa | 0 mm | - | 301 W/m² | - |
| 1777394075 | 11.67° C | 65% | 1020.3 hPa | 0 mm | - | 262 W/m² | - |
| 1777393773 | 11.67° C | 64% | 1020.5 hPa | 0 mm | - | 197 W/m² | - |
| 1777393473 | 11.67° C | 61% | 1020.4 hPa | 0 mm | - | 232 W/m² | - |
| 1777393173 | 11.67° C | 61% | 1020.5 hPa | 0 mm | - | 248 W/m² | - |
| 1777392872 | 11.67° C | 61% | 1020.5 hPa | 0 mm | - | 243 W/m² | - |
| 1777392572 | 11.67° C | 61% | 1020.6 hPa | 0 mm | - | 229 W/m² | - |
| 1777392272 | 11.67° C | 60% | 1020.6 hPa | 0 mm | - | 227 W/m² | - |
| 1777391972 | 11.67° C | 61% | 1020.6 hPa | 0 mm | - | 216 W/m² | - |
| 1777391671 | 11.67° C | 60% | 1020.6 hPa | 0 mm | - | 202 W/m² | - |
| 1777391371 | 11.67° C | 61% | 1020.6 hPa | 0 mm | - | 186 W/m² | - |
| 1777391071 | 11.67° C | 61% | 1020.6 hPa | 0 mm | - | 179 W/m² | - |
| 1777390470 | 11.67° C | 59% | 1020.7 hPa | 0 mm | - | 220 W/m² | - |
| 1777390170 | 12.22° C | 59% | 1020.7 hPa | 0 mm | - | 262 W/m² | - |
| 1777389870 | 12.22° C | 58% | 1020.7 hPa | 0 mm | - | 313 W/m² | - |
* Rain latest hour (hover to see other rain measurements)
** Current wind speed in m/s (hover to see current wind gust speed)